This demonstration page uses our WeatherBlox Daily Observations layout. Learn more.

Left ArrowRight Arrow

38.20091, -84.87328

Hourly Observations for July 28, 2018

Temp ( °F °C ) Dew Point ( °F °C ) Humidity (%) Winds ( mph kmh ) Pressure ( in mb ) Visibility ( mi km ) Precip ( " mm )
12:53 am 00:53 Clear 64 17.8 61 16.1 90 90 NNW 3 6 30.07 1018 10 16 0.00 0.00
1:53 am 01:53 Clear 63 17.2 60 15.6 90 90 Calm 30.07 1018 10 16 0.00 0.00
2:53 am 02:53 Clear 63 17.2 59 15 87 87 Calm 30.06 1018 10 16 0.00 0.00
3:53 am 03:53 Clear 61 16.1 59 15 93 93 Calm 30.07 1018 10 16 0.00 0.00
4:53 am 04:53 Clear 60 15.6 58 14.4 93 93 NNW 3 6 30.07 1018 10 16 0.00 0.00
5:53 am 05:53 Clear 59 15 57 13.9 93 93 NNW 3 6 30.08 1019 10 16 0.00 0.00
6:53 am 06:53 Sunny 59 15 57 13.9 93 93 NNW 3 6 30.09 1019 10 16 0.00 0.00
7:53 am 07:53 Sunny 63 17.2 59 15 87 87 Calm 30.10 1019 10 16 0.00 0.00
8:53 am 08:53 Partly Cloudy 67 19.4 61 16.1 81 81 NW 3 6 30.12 1020 10 16 0.00 0.00
9:53 am 09:53 Sunny 72 22.2 61 16.1 68 68 ENE 3 6 30.13 1020 10 16 0.00 0.00
10:53 am 10:53 Sunny 75 23.9 61 16.1 62 62 Calm 30.13 1020 10 16 0.00 0.00
11:53 am 11:53 Sunny 77 25 59 15 54 54 VRB 3 6 30.13 1020 10 16 0.00 0.00
12:53 pm 12:53 Mostly Sunny 79 26.1 57 13.9 47 47 NW 6 9 30.12 1020 10 16 0.00 0.00
1:53 pm 13:53 Mostly Cloudy 80 26.7 59 15 49 49 NNW 7 11 30.11 1020 10 16 0.00 0.00
2:53 pm 14:53 Mostly Sunny 79 26.1 59 15 50 50 S 3 6 30.11 1020 10 16 0.00 0.00
3:53 pm 15:53 Partly Cloudy 80 26.7 59 15 49 49 Calm 30.11 1020 10 16 0.00 0.00
4:53 pm 16:53 Partly Cloudy 80 26.7 60 15.6 51 51 WNW 6 9 30.10 1019 10 16 0.00 0.00
5:53 pm 17:53 Sunny 80 26.7 59 15 49 49 Calm 30.10 1019 10 16 0.00 0.00
6:53 pm 18:53 Sunny 79 26.1 58 14.4 49 49 NW 3 6 30.09 1019 10 16 0.00 0.00
7:53 pm 19:53 Sunny 79 26.1 60 15.6 52 52 Calm 30.07 1018 10 16 0.00 0.00
8:53 pm 20:53 Sunny 73 22.8 63 17.2 71 71 Calm 30.09 1019 10 16 0.00 0.00
9:53 pm 21:53 Clear 68 20 62 16.7 81 81 Calm 30.10 1019 10 16 0.00 0.00
10:53 pm 22:53 Clear 67 19.4 61 16.1 81 81 Calm 30.11 1020 10 16 0.00 0.00
11:53 pm 23:53 Clear 65 18.3 61 16.1 87 87 Calm 30.10 1019 10 16 0.00 0.00

Powered by AerisWeather